Torna al catalogo

FORMOSAT 3D

AttivoScienzaLEO
NORAD 29050·PAYLOAD·🇹🇼 Taiwan

Lanciato Apr 15, 2006 da Vandenberg Space Force Base

Loading…

Prossimi Passaggi (prossime 24 ore)

TLE

AggiornatoSource: Space-Track

Epoca: Sep 13, 2026, 21:32 UTC

1 29050U 06011D   26256.89787088  .00000866  00000-0  16117-3 0  9999
2 29050  72.0120 120.0878 0041673 123.4278 237.0875 14.67117508 89384

Traccia FORMOSAT 3D in tempo reale con AllMySat

Download on the App Store